Location: Toronto
(43.6672°N, 79.4170°W)
Time: 20:32:41
(UTC-04:00)

ISS - All Passes

Search period start: 30 August 2015 00:00
Search period end: 09 September 2015 00:00
Orbit: 399 x 401 km, 51.6° (Epoch: 30 August)

Date Brightness Start Highest point End Pass type
(mag) Time Alt. Az. Time Alt. Az. Time Alt. Az.
30 Aug - 09:17:41 10° SSE 09:19:24 14° SE 09:21:13 10° E daylight
30 Aug - 10:52:11 10° WSW 10:55:26 79° NNW 10:58:42 10° NE daylight
30 Aug - 12:29:31 10° WNW 12:32:12 23° NNW 12:34:54 10° NE daylight
30 Aug - 14:06:47 10° NW 14:09:21 21° N 14:11:56 10° ENE daylight
30 Aug - 15:43:02 10° NW 15:46:14 55° NNE 15:49:26 10° ESE daylight
30 Aug - 17:19:53 10° W 17:22:25 21° SW 17:24:55 10° S daylight
31 Aug - 09:58:42 10° SW 10:01:53 56° SE 10:05:05 10° ENE daylight
31 Aug - 11:35:32 10° W 11:38:26 29° NNW 11:41:21 10° NE daylight
31 Aug - 13:13:05 10° NW 13:15:32 19° N 13:18:00 10° NE daylight
31 Aug - 14:49:33 10° NW 14:52:34 35° NNE 14:55:36 10° E daylight
31 Aug - 16:25:55 10° WNW 16:28:59 38° SW 16:32:01 10° SSE daylight
01 Sep - 09:05:34 10° SSW 09:08:25 29° SE 09:11:18 10° ENE daylight
01 Sep - 10:41:37 10° W 10:44:43 42° NNW 10:47:51 10° NE daylight
01 Sep - 12:19:12 10° NW 12:21:42 20° N 12:24:12 10° NE daylight
01 Sep - 13:56:01 10° NW 13:58:49 26° NNE 14:01:38 10° ENE daylight
01 Sep - 15:32:14 10° WNW 15:35:28 75° SW 15:38:43 10° SE daylight
02 Sep - 08:12:58 10° S 08:14:59 16° SE 08:17:06 10° E daylight
02 Sep - 09:47:50 10° WSW 09:51:04 70° NNW 09:54:19 10° NE daylight
02 Sep - 11:25:14 10° WNW 11:27:53 22° N 11:30:32 10° NE daylight
02 Sep - 13:02:26 10° NW 13:05:02 22° N 13:07:38 10° ENE daylight
02 Sep - 14:38:39 10° NW 14:41:53 61° NNE 14:45:06 10° ESE daylight
02 Sep - 16:15:40 10° W 16:18:01 18° SW 16:20:18 10° S daylight
03 Sep - 08:54:17 10° SW 08:57:30 64° SE 09:00:43 10° ENE daylight
03 Sep - 10:31:13 10° WNW 10:34:05 28° NNW 10:36:57 10° NE daylight
03 Sep - 12:08:43 10° NW 12:11:12 20° N 12:13:40 10° NE daylight
03 Sep - 13:45:08 10° NW 13:48:12 38° NNE 13:51:16 10° E daylight
03 Sep - 15:21:35 10° WNW 15:24:34 34° SW 15:27:32 10° SSE daylight
04 Sep - 08:01:02 10° SSW 08:03:58 33° SE 08:06:58 10° ENE daylight
04 Sep - 09:37:16 10° W 09:40:20 38° NNW 09:43:25 10° NE daylight
04 Sep - 11:14:52 10° NW 11:17:20 20° N 11:19:49 10° NE daylight
04 Sep - 12:51:36 10° NW 12:54:27 27° NNE 12:57:19 10° ENE daylight
04 Sep - 14:27:50 10° WNW 14:31:03 66° SW 14:34:16 10° SE daylight
05 Sep - 07:08:16 10° S 07:10:31 18° SE 07:12:51 10° E daylight
05 Sep - 08:43:25 10° WSW 08:46:39 62° NNW 08:49:53 10° NE daylight
05 Sep - 10:20:53 10° WNW 10:23:30 22° N 10:26:06 10° NE daylight
05 Sep - 11:58:00 10° NW 12:00:38 22° N 12:03:17 10° ENE daylight
05 Sep - 13:34:13 10° NW 13:37:28 69° NNE 13:40:41 10° ESE daylight
05 Sep - 15:11:24 10° W 15:13:32 16° SW 15:15:36 10° S daylight
06 Sep - 07:49:48 10° SW 07:53:02 74° SE 07:56:17 10° ENE daylight
06 Sep - 09:26:51 10° WNW 09:29:40 26° NNW 09:32:29 10° NE daylight
06 Sep - 11:04:18 10° NW 11:06:47 20° N 11:09:17 10° NE daylight
06 Sep - 12:40:39 10° NW 12:43:46 41° NNE 12:46:52 10° E daylight
06 Sep - 14:17:11 10° WNW 14:20:05 30° SW 14:22:57 10° SSE daylight
07 Sep - 06:56:27 10° SSW 06:59:28 38° SE 07:02:31 10° ENE daylight
07 Sep - 08:32:51 10° W 08:35:53 36° NNW 08:38:56 10° NE daylight
07 Sep - 10:10:27 10° NW 10:12:55 19° N 10:15:23 10° NE daylight
07 Sep - 11:47:06 10° NW 11:50:00 29° NNE 11:52:55 10° E daylight
07 Sep - 13:23:21 10° WNW 13:26:34 57° SW 13:29:45 10° SE daylight
08 Sep - 06:03:32 10° S 06:05:59 20° SE 06:08:30 10° E visible
08 Sep - 07:38:58 10° WSW 07:42:09 56° NNW 07:45:22 10° NE daylight
08 Sep - 09:16:28 10° WNW 09:19:02 21° N 09:21:37 10° NE daylight
08 Sep - 10:53:30 10° NW 10:56:11 23° NNE 10:58:52 10° ENE daylight
08 Sep - 12:29:42 10° NW 12:32:57 77° NNE 12:36:12 10° ESE daylight
08 Sep - 14:07:08 10° W 14:08:59 14° SW 14:10:46 10° SSW daylight
